Dewpoint
29 33 35 38 40 43 51 57 56 56 56 56 57 56 56 55 56 56 56 56 55 56 56 55 55 55 55 55 55 54 53 52 50 51 52 52 51 51 52 51 51 51 51
27 30 33 36 37 39 41 50 57 56 57 56 56 57 56 56 56 55 56 56 55 55 56 55 55 55 54 54 54 54 53 52 52 50 51 52 51 51 51 50 51 52 51
26 27 30 32 35 35 38 41 47 58 57 57 56 56 56 56 56 55 55 55 55 55 55 56 55 55 54 54 53 53 53 53 52 51 51 50 50 50 49 49 50 50 51
24 25 26 28 31 34 36 39 40 45 57 57 56 56 56 56 56 56 55 55 55 55 55 56 56 56 55 54 54 53 53 52 51 51 50 50 49 49 49 49 49 49 50
23 24 25 27 29 31 34 35 38 39 43 58 58 57 56 56 56 56 56 55 55 55 56 56 56 55 52 54 55 53 53 52 50 51 52 50 49 48 48 49 48 48 49
21 22 24 26 27 28 32 34 35 37 38 43 58 58 58 58 54 53 55 57 57 56 56 56 57 51 51 51 52 52 53 52 51 50 52 51 50 49 49 48 48 47 46
21 21 23 25 25 26 29 32 34 34 37 39 44 54 58 59 53 53 53 58 58 58 57 56 56 55 53 54 51 50 51 51 51 53 50 50 50 50 49 48 47 47 46
19 20 22 23 24 26 27 28 31 34 35 38 42 45 45 45 46 52 53 58 58 58 57 56 55 53 54 54 53 53 53 52 51 52 52 52 51 51 50 49 48 47 46
17 19 21 23 23 24 25 27 29 32 34 36 37 41 42 43 44 45 50 57 56 55 55 54 54 53 49 50 52 52 51 51 50 50 50 50 49 49 49 49 48 47 46
12 16 22 22 23 23 24 26 28 32 32 34 34 34 36 36 41 42 44 50 54 50 47 46 46 50 48 48 51 52 51 49 50 50 50 48 49 49 47 50 48 48 46
10 12 16 20 24 23 24 25 27 29 31 32 32 32 32 34 35 38 40 41 44 47 44 42 42 44 46 48 50 51 51 50 49 50 52 51 50 50 49 49 50 50 46
9 10 12 14 17 23 23 24 26 27 27 28 30 30 31 32 35 36 37 38 39 38 38 39 39 41 43 45 48 48 48 50 51 51 50 50 48 48 48 48 49 49 50
7 8 10 12 9 16 21 23 23 25 25 26 27 27 28 30 31 35 36 36 36 33 35 37 38 40 42 43 44 44 46 48 48 47 48 48 48 49 48 47 46 46 47
6 7 10 9 10 8 15 22 23 24 24 25 25 25 26 28 30 31 31 32 33 33 34 34 36 38 40 42 43 44 45 45 46 46 46 47 45 43 41 41 38 37 38
8 6 9 9 10 8 7 14 23 26 28 26 25 25 25 26 29 32 32 31 32 33 33 33 33 33 35 39 40 39 39 40 39 40 39 38 37 36 35 35 35 35 36
9 8 9 11 10 10 8 6 15 23 27 28 30 29 27 29 30 32 30 31 34 34 32 31 32 33 33 34 33 34 34 34 34 35 35 34 33 33 33 33 33 34 34
10 10 10 10 11 10 9 5 5 10 16 19 24 27 27 28 26 27 27 28 31 30 28 28 28 28 28 29 30 30 30 30 31 31 32 32 32 33 33 33 33 33 33
8 13 11 9 10 10 12 8 6 7 7 6 13 18 20 23 23 23 23 22 21 22 23 23 24 25 25 26 27 27 27 28 28 28 29 29 30 31 31 32 32 32 33
7 7 8 10 11 13 13 10 9 9 9 8 8 9 15 20 19 19 20 17 18 18 19 20 20 21 23 24 25 25 24 24 24 24 25 26 28 29 29 31 31 32 32
4 14 15 14 11 11 12 12 10 10 10 10 9 9 10 15 13 13 14 15 15 15 16 17 18 18 19 21 21 20 19 19 20 20 22 23 23 25 27 27 27 27 28
5 6 14 11 8 8 9 11 11 10 10 10 10 10 14 12 12 13 12 13 13 13 13 14 16 16 17 17 18 17 16 16 17 17 18 19 20 20 22 24 26 25 25
4 4 5 5 8 6 6 8 9 7 7 7 8 10 10 10 12 13 14 14 13 14 13 12 13 13 14 15 16 14 13 13 14 14 15 16 17 18 19 21 22 23 23
8 7 6 6 7 12 10 10 11 11 9 7 7 10 10 9 9 9 11 12 12 14 15 13 12 12 10 12 14 14 11 11 12 13 12 13 15 17 18 20 21 20 22
11 9 8 7 7 8 8 8 7 11 9 9 8 9 8 7 8 8 9 8 9 8 8 10 12 10 9 8 10 11 10 10 10 11 12 12 13 16 18 19 20 20 21
7 8 8 7 8 7 8 9 10 9 10 11 10 10 8 8 6 5 4 4 3 3 4 3 4 5 4 2 4 4 8 10 14 16 17 17 16 17 18 18 19 19 19
8 8 8 8 7 7 8 8 7 7 7 9 10 8 8 7 7 6 4 1 1 2 1 2 1 -2 -3 -3 -3 3 12 14 15 17 17 17 17 17 18 19 18 19 19
Lifted_Index
4 4 3 2 1 1 0 -0 0 1 2 3 3 3 3 4 4 4 4 4 4 4 4 4 4 3 3 3 3 3 3 3 3 4 4 4 5 5 6 6 7 7 8
5 5 4 3 2 2 1 0 0 1 1 2 2 3 3 3 4 4 4 4 4 4 4 3 3 3 3 3 2 2 2 2 3 3 3 4 4 5 6 6 6 7 8
7 6 5 4 4 3 2 1 1 0 0 1 2 2 2 3 3 3 4 4 3 3 4 3 3 2 2 2 1 1 1 2 2 3 3 3 4 4 5 5 6 6 7
9 8 6 5 4 3 3 2 2 1 0 1 1 1 2 2 2 3 3 4 3 3 3 3 3 2 2 1 1 1 2 2 2 3 3 3 3 4 5 5 5 6 6
11 10 8 7 6 5 3 3 3 2 1 1 1 1 1 1 1 2 2 3 3 3 3 2 2 1 1 1 1 1 2 2 2 2 3 3 3 4 4 5 5 6 6
12 12 11 10 8 6 5 4 3 2 2 2 1 1 1 1 1 1 1 1 2 2 2 1 1 1 1 1 1 2 2 2 2 2 3 3 3 4 4 5 5 6 6
14 14 13 12 10 9 8 6 4 3 3 2 2 1 1 1 1 0 0 0 0 0 0 0 0 0 1 1 2 2 2 2 2 2 2 3 3 3 4 5 6 6 6
16 15 15 14 12 11 10 8 6 5 4 3 2 2 2 1 1 1 0 0 0 -0 -0 -0 0 1 1 2 2 2 3 2 2 2 2 3 3 3 4 5 6 7 7
17 17 16 16 15 13 12 10 9 8 7 6 5 4 3 2 1 1 1 1 0 0 -0 0 1 1 2 3 3 3 3 3 3 3 3 3 3 4 4 5 6 7 7
19 19 18 18 17 16 14 13 12 11 10 9 8 7 6 4 3 3 2 2 2 1 1 1 2 3 3 4 4 4 4 4 4 4 4 4 4 4 4 5 6 7 7
22 21 20 19 18 18 16 15 14 13 12 11 10 10 9 8 7 6 5 5 4 3 2 3 3 4 4 5 5 5 5 4 4 4 4 4 4 4 5 5 6 6 7
23 23 21 21 20 19 18 17 16 15 14 12 12 11 11 11 10 9 8 7 6 5 5 4 4 5 5 5 6 6 5 5 5 5 5 4 4 4 4 5 5 6 7
24 23 23 22 21 20 20 18 17 16 15 14 13 13 13 13 12 11 10 10 9 8 7 7 6 6 6 6 6 6 6 6 6 6 5 5 5 5 5 5 6 7 7
24 24 24 23 22 22 21 20 19 18 17 16 15 15 14 14 14 14 13 12 12 11 10 10 9 8 7 7 7 7 7 6 7 7 7 6 6 6 5 6 6 7 8
23 24 24 24 24 23 23 22 21 21 20 19 18 18 17 17 17 17 16 14 14 13 12 11 10 9 9 9 8 8 8 8 8 7 8 8 7 7 7 7 7 8 8
23 23 24 24 24 24 23 23 23 23 23 23 22 21 21 21 20 19 18 17 16 15 13 12 11 11 10 10 10 10 9 9 9 9 9 8 8 8 8 8 8 8 8
23 23 23 24 24 24 24 24 24 24 24 24 24 24 24 23 22 21 20 19 17 16 15 13 13 12 12 12 12 12 11 11 11 10 10 9 10 10 10 10 9 9 9
22 23 23 24 23 23 23 23 24 24 24 24 25 25 25 25 24 23 22 20 19 17 16 15 15 14 14 14 14 14 14 13 12 12 11 11 11 11 11 11 11 10 10
22 22 23 23 23 23 23 23 23 23 23 23 24 25 26 25 25 24 23 22 20 19 19 18 18 18 17 17 17 17 16 15 14 14 13 13 12 12 12 12 12 12 12
21 21 22 22 23 23 23 23 23 23 23 23 24 24 25 25 24 24 24 23 22 22 21 21 21 21 20 20 20 19 18 18 17 16 15 15 15 14 14 14 14 14 13
19 20 20 21 21 22 22 22 23 23 23 23 23 24 24 24 23 23 24 24 24 24 23 23 23 23 23 22 21 21 20 19 19 18 18 18 17 17 17 16 16 16 15
17 18 19 19 20 20 21 21 22 22 22 23 23 24 24 24 24 24 24 24 25 25 24 24 24 24 24 23 22 22 21 21 21 20 20 19 19 19 18 18 17 16 16
16 17 17 18 19 19 20 20 21 21 22 22 23 23 24 24 24 24 24 24 25 25 25 25 25 24 24 24 24 23 22 22 22 22 21 21 20 19 19 18 18 17 16
16 16 17 17 18 18 19 20 20 21 21 21 22 22 23 23 23 24 24 24 25 25 25 25 25 25 25 25 25 24 24 23 23 23 22 21 20 20 20 19 19 18 18
17 17 17 17 17 18 18 19 19 20 20 21 21 22 22 23 23 23 24 24 24 25 25 25 25 25 25 25 25 25 25 24 24 23 23 22 21 21 20 20 20 19 19
17 17 17 17 17 18 18 18 19 19 20 20 21 21 22 22 22 23 23 23 24 24 24 24 25 25 25 25 25 25 25 24 24 24 23 22 21 21 21 20 20 20 19